Location: Maiden
(35.5760°N, 81.2120°W)
Time: 16:05:56
(UTC-04:00)

Daily predictions for brighter satellites

Satellite Brightness Start Highest point End
(mag) Time Altitude Azimuth Time Altitude Azimuth Time Altitude Azimuth
Cosmos 44 4.3 20:58:03 10° SW 21:02:37 53° WNW 21:07:32 10° NNE
H-2A R/B 3.8 21:04:26 10° ESE 21:07:50 17° ENE 21:11:13 10° NNE
Chunghua 1 4.5 21:04:10 10° W 21:07:54 78° S 21:11:36 10° E
Cosmos 1441 Rocket 3.8 21:05:40 10° NNW 21:09:22 60° W 21:13:05 10° S
ERS-2 3.7 21:06:56 10° ESE 21:09:40 20° ENE 21:12:25 10° NNE
Cosmos 2074 Rocket 4.3 21:03:50 10° N 21:09:58 52° E 21:16:05 10° SSE
CZ-2D R/B 4.4 21:06:26 10° S 21:10:05 44° W 21:13:45 10° NNW
Thor Agena Rocket 3.5 21:05:33 10° NNE 21:10:34 62° ESE 21:15:35 10° S
Cosmos 1408 Rocket 4.3 21:06:13 10° SSW 21:10:37 60° W 21:15:00 10° N
Cosmos 1455 2.9 21:06:57 10° NNW 21:10:45 58° W 21:14:33 10° S
SeaSat 1 2.9 21:06:12 10° NE 21:10:49 39° ESE 21:15:23 10° S
Cosmos 44 Rocket 3.6 21:09:22 10° SSW 21:14:11 76° WNW 21:19:13 10° NNE
Cosmos 1151 Rocket 3.3 21:10:41 10° N 21:14:50 50° E 21:19:01 10° SSE
Cosmos 1833 4.2 21:11:43 10° NNW 21:17:23 80° ENE 21:23:05 10° SSE
Cosmos 2228 Rocket 3.4 21:13:28 10° N 21:17:45 49° E 21:22:01 10° SSE
USA 229 DEB 4.3 21:10:55 10° NNW 21:17:56 51° NE 21:25:01 10° SE
Spot 2 Rocket 4.0 21:13:14 10° SE 21:18:02 44° ENE 21:22:51 10° N
USA 229 4.3 21:11:01 10° NNW 21:18:02 50° NE 21:25:06 10° SE
SJ-6B 4.1 21:16:50 10° S 21:20:47 44° W 21:24:45 10° NNW
USA 186 2.2 21:21:31 10° S 21:23:42 40° W 21:25:51 10° NNW
Iridium 65 4.5 21:23:11 10° NNW 21:24:19 24° W 21:25:28 10° SSW
Lacrosse 5 rocket 2.3 21:21:57 10° WSW 21:25:47 51° NW 21:29:52 10° NNE
Cosmos 304 Rocket 4.5 21:21:10 10° NNW 21:25:51 55° WSW 21:30:32 10° S
Cosmos 2151 3.5 21:22:52 10° SSW 21:27:00 61° W 21:31:10 10° N
Resurs 01 Rocket 1.6 21:26:35 10° SSE 21:31:01 84° ENE 21:35:29 10° N
CZ-3 Stage 3 4.4 21:28:29 10° WSW 21:32:31 46° S 21:48:55 12° ESE
Meteor 2-21 4.5 21:28:27 10° N 21:34:33 66° E 21:40:40 10° SSE
YAOGAN 6 4.4 21:32:25 10° SSW 21:35:31 30° W 21:38:41 10° NW
Resurs 1-3 3.7 21:32:18 10° S 21:36:40 77° WSW 21:41:05 10° NNW
Cosmos 1570 Rocket 4.1 21:33:37 10° NNW 21:38:51 80° WSW 21:44:03 10° SSE
COSMOS 2455 2.8 21:33:33 10° NNW 21:39:36 83° ENE 21:45:01 13° SSE
Cosmos 1515 Rocket 3.7 21:37:32 10° N 21:42:00 78° W 21:46:26 10° S
Cosmos 1869 3.3 21:38:15 10° N 21:42:18 88° ENE 21:46:19 10° S
Cosmos 2208 Rocket 4.1 21:36:52 10° NNW 21:42:21 86° WSW 21:47:46 10° SSE
Cosmos 1610 Rocket 4.5 21:40:10 10° N 21:46:17 68° E 21:52:17 10° SSE
Meteor 2-10 Rocket 4.0 21:45:41 10° NNW 21:51:21 72° W 21:57:08 10° S
Cosmos 1892 3.2 21:53:40 22° SSE 21:55:38 39° E 21:59:13 10° NNE
Tiangong 2 3.4 21:56:28 10° NW 21:59:01 22° N 22:01:33 10° ENE
Nadezhda 1 Rocket 4.4 21:55:46 10° SSW 22:02:04 68° W 22:08:19 10° N
Atlas Centaur 2 3.1 21:54:43 10° W 22:02:46 55° S 22:07:24 22° ESE
Meteor 2-16 Rocket 4.4 21:56:46 10° N 22:02:56 73° E 22:07:49 17° SSE
GPS 2-05 Rocket1 2.3 22:01:27 10° W 22:04:27 78° SSW 22:05:22 41° ESE
Cosmos 292 Rocket 3.8 21:59:35 10° NNW 22:04:27 70° ENE 22:07:18 24° SSE
Cosmos 841 Rocket 3.7 22:00:42 10° N 22:05:45 55° ENE 22:08:29 26° SE
Abrixas rocket 3.2 22:03:59 10° WSW 22:07:04 46° NNW 22:10:09 10° NE
SL-08 RB Rocket 3.7 22:13:40 28° SSE 22:16:02 69° ENE 22:20:36 10° N
ARGOS 3.1 22:13:49 21° SSE 22:17:34 89° WSW 22:22:59 10° NNW
NOSS 3-1 (C) 4.1 22:10:07 10° NNW 22:17:57 78° ENE 22:23:23 26° SE
ERBS 2.1 22:18:52 10° SSW 22:22:14 68° SE 22:25:37 10° NE
Cosmos 968 Rocket 4.3 22:25:48 30° ESE 22:26:04 30° E 22:30:35 10° NE
Cosmos 1805 Rocket 4.0 22:24:35 12° SSW 22:28:35 62° W 22:33:01 10° N
MetOp-B 4.1 22:26:15 28° SSE 22:29:13 89° WSW 22:34:37 10° NNW
Shenzhou-11 Module 2.3 22:26:37 10° WNW 22:29:14 55° WSW 22:29:14 55° WSW
TIMED 4.5 22:28:31 40° SSE 22:29:49 59° ESE 22:34:08 10° NNE
Lacrosse 5 3.4 22:25:41 10° WNW 22:29:53 27° WSW 22:32:32 17° SSW
ISS -4.0 22:26:53 10° SW 22:30:09 84° SE 22:30:44 57° ENE
Cosmos 2154 Rocket 4.4 22:24:13 10° NNW 22:30:25 63° W 22:35:32 15° S
Meteor 2-3 Rocket 3.9 22:28:01 29° SSE 22:30:50 57° E 22:36:30 10° NNE
SPOT 5 3.6 22:29:56 34° ESE 22:31:36 43° ENE 22:36:31 10° N
Cosmos 1656 3.8 22:30:29 32° SSE 22:32:45 49° ESE 22:38:08 10° NNE
Cosmos 1633 Rocket 3.0 22:33:29 43° SSE 22:34:49 71° E 22:39:13 10° NNE
USA 245 3.9 22:39:03 38° SSE 22:41:14 84° ENE 22:45:53 10° N
ERS-2 4.4 22:40:54 12° SW 22:43:10 20° W 22:45:56 10° NW
Cosmos 2366 rocket 4.2 22:37:41 10° N 22:43:43 51° E 22:45:32 39° SE
H-2A R/B 2.6 22:43:43 26° S 22:46:44 57° W 22:52:04 10° NNW
OAO 1 Rocket 4.3 22:41:34 10° W 22:46:53 86° S 22:48:41 43° E
Cosmos 2297 Rocket 2.8 22:41:35 10° N 22:46:58 43° ENE 22:48:19 37° E
ERS-1 Rocket 2.9 22:47:00 43° S 22:48:43 82° WSW 22:53:46 10° NNW
Cosmos 2181 Rocket 4.1 22:44:21 17° SSW 22:49:15 71° W 22:55:22 10° N
SPOT 1/Viking Rocket 3.6 22:48:21 49° SE 22:49:32 63° ENE 22:54:41 10° N
Cosmos 1354 Rocket 4.0 22:49:53 24° SSW 22:53:08 80° WNW 22:58:25 10° NNE
Cosmos 1862 Rocket 4.3 22:49:37 10° N 22:53:26 38° ENE 22:53:26 38° ENE
Cosmos 2218 Rocket 4.0 22:47:41 10° N 22:54:01 70° E 22:56:05 44° SSE
Celestis-02/Orion 38 4.5 22:53:01 51° SSE 22:54:21 83° WSW 22:59:27 10° NNW
EO 1 Delta rocket 3.8 22:51:23 10° NNE 22:55:57 61° E 22:56:16 60° ESE
SL-24 R/B - RUBIN 2 3.9 22:51:57 10° NW 22:56:19 60° WSW 22:57:02 52° SSW
Terra 2.5 22:56:53 37° ENE 22:57:01 37° ENE 23:01:24 10° N
CZ-2C R/B 3.7 22:59:05 39° E 22:59:40 41° ENE 23:04:30 10° N
Cosmos 1707 Rocket 4.1 22:55:47 10° NNW 22:59:59 52° W 23:00:56 43° SW
Cosmos 2227 Rocket 2.3 22:55:03 10° NNW 23:00:40 63° ENE 23:01:44 52° ESE
Cosmos 1933 4.2 22:57:08 10° NNW 23:01:03 45° W 23:01:48 40° SW
Cosmos 1503 Rocket 4.5 23:01:07 19° SW 23:04:44 58° WNW 23:09:54 10° N
Cosmos 2242 Rocket 3.8 23:01:10 10° N 23:05:07 54° ENE 23:05:07 54° ENE
Cosmos 2219 3.8 23:00:22 10° NNW 23:05:44 48° WSW 23:07:33 35° SSW
Helios 1B rocket 2.8 23:03:27 10° NNE 23:06:43 52° NE 23:06:43 52° NE
Nadezhda 3 Rocket 4.3 23:09:23 44° E 23:09:47 44° E 23:15:38 10° NNE
NOSS 3-1 (A) 4.2 23:01:55 10° NW 23:09:47 74° WSW 23:13:12 41° SSE
Cosmos 1470 Rocket 3.5 23:10:27 84° N 23:10:27 84° N 23:14:40 10° N
Cosmos 2369 3.7 23:09:03 32° SSW 23:11:46 78° WNW 23:17:28 10° NNE
Helios 1A 3.0 23:14:02 77° WNW 23:14:02 77° WNW 23:18:05 10° NNW
Nimbus 7 Rocket 4.5 23:10:21 10° NNE 23:16:19 57° ESE 23:16:42 56° ESE
Cosmos 1697 Rocket 2.5 23:15:52 67° SSE 23:16:32 76° ESE 23:22:11 10° NNE
IGS 5A 3.8 23:17:45 62° NNE 23:17:45 62° NNE 23:21:18 10° N
CZ-2C R/B 3.1 23:13:24 10° NNE 23:17:34 43° ENE 23:17:34 43° ENE
Cosmos 1606 3.5 23:16:37 10° N 23:19:31 48° N 23:19:31 48° N
Cosmos 1782 3.9 23:17:39 10° N 23:20:22 39° NNE 23:20:22 39° NNE
Cosmos 2098 Rocket 4.4 23:20:09 10° NNW 23:23:43 27° W 23:23:59 27° W
Cosmos 1408 4.1 23:26:34 33° WNW 23:26:34 33° WNW 23:29:29 10° NNW
Cosmos 1825 3.4 23:27:07 40° WNW 23:27:07 40° WNW 23:30:15 10° N
Cosmos 540 Rocket 4.3 23:22:08 10° NNW 23:26:52 39° WSW 23:27:37 37° WSW
Cosmos 2278 4.0 23:25:19 36° SW 23:27:35 65° WNW 23:33:15 10° NNE
Cosmos 1933 Rocket 3.9 23:29:57 63° NW 23:29:57 63° NW 23:34:02 10° N
Meteor 1-10 Rocket 4.4 23:25:49 10° N 23:31:37 61° E 23:31:45 61° E
Cosmos 1821 Rocket 4.5 23:28:57 10° N 23:35:03 45° E 23:35:13 45° E
Tiangong 2 3.9 23:33:16 10° NW 23:34:18 18° NW 23:34:18 18° NW
Cosmos 2322 Rocket 4.4 23:44:08 12° ENE 23:44:08 12° ENE 23:44:48 10° ENE
Atlas Centaur 2 3.8 23:45:15 10° W 23:50:00 28° SW 23:50:00 28° SW
